Location: Mason Neck State Park
(38.6428°N, 77.1981°W)
Time: 11:12:48
(UTC-04:00)

Daily predictions for brighter satellites

Satellite Brightness Start Highest point End
(mag) Time Altitude Azimuth Time Altitude Azimuth Time Altitude Azimuth
ALOS 2.8 20:05:47 10° SE 20:10:08 40° ENE 20:14:30 10° N
Cosmos 2208 Rocket 4.1 20:05:48 10° S 20:11:02 64° ESE 20:16:23 10° NNE
Cosmos 2369 3.8 20:06:43 10° S 20:12:12 54° ESE 20:17:45 10° NNE
Spot 2 Rocket 3.6 20:07:44 10° SSE 20:12:50 84° WSW 20:17:57 10° NNW
Cosmos 1980 Rocket 3.8 20:12:14 10° ESE 20:14:24 12° E 20:16:34 10° ENE
Cosmos 1975 4.0 20:12:15 10° SE 20:15:33 24° E 20:18:51 10° NE
H-2A R/B 3.5 20:13:01 10° SE 20:16:31 34° ENE 20:20:05 10° N
NOSS 7 (H) 4.5 20:14:09 10° SSW 20:17:26 50° ESE 20:20:42 10° NE
Helios 1B rocket 3.2 20:15:52 10° N 20:19:55 58° WNW 20:23:57 10° SSW
CZ-4B DEB 2.8 20:17:38 10° SSE 20:20:51 61° ENE 20:24:06 10° N
Lacrosse 5 rocket 1.8 20:19:15 10° NNW 20:22:45 38° NE 20:25:57 11° ESE
USA 186 2.5 20:21:34 10° SE 20:24:21 30° ENE 20:26:59 10° NNE
Cosmos 1570 Rocket 4.1 20:20:15 10° SSW 20:25:33 86° WNW 20:30:52 10° NNE
Okean 2 3.4 20:21:52 10° N 20:26:04 81° E 20:30:11 10° S
Meteor 1-23 Rocket 4.5 20:21:09 10° NNW 20:26:49 77° W 20:32:31 10° S
Iridium 4 Rocket 4.2 20:22:58 10° NNE 20:27:16 28° E 20:31:13 10° SE
Meteor 2-16 Rocket 4.4 20:22:19 10° S 20:28:23 83° E 20:34:29 10° N
OTV 4 1.0 20:28:56 10° W 20:31:47 47° SSW 20:34:01 15° ESE
Meteor 1-12 Rocket 4.4 20:29:41 10° S 20:35:13 54° E 20:40:54 10° NNE
FENGYUN 3A 3.6 20:30:41 10° SSE 20:36:00 73° ENE 20:41:21 10° N
CZ-2D R/B 3.2 20:33:04 10° SSE 20:36:54 68° ENE 20:40:47 10° N
Cosmos 1656 3.8 20:33:42 10° S 20:39:07 50° ESE 20:44:28 10° NNE
Hubble Space Telescope 3.2 20:40:22 10° SW 20:41:37 11° SSW 20:42:53 10° S
Cosmos 2227 Rocket 2.2 20:38:35 10° NNW 20:44:17 85° ENE 20:49:56 10° SSE
Tiangong 1 2.2 20:42:10 10° WNW 20:45:05 36° N 20:47:24 14° ENE
Cosmos 1605 Rocket 4.0 20:40:09 10° S 20:46:29 82° E 20:52:47 10° N
Cosmos 1500 3.7 20:46:22 10° SSE 20:49:49 35° E 20:53:17 10° NNE
ERS-1 Rocket 3.6 20:48:08 16° SE 20:51:37 37° ENE 20:56:13 10° N
Cosmos 1939 Rocket 4.1 20:49:57 20° ESE 20:51:43 26° ENE 20:55:13 10° NNE
Lacrosse 5 2.9 20:49:19 10° NNW 20:53:53 33° NE 20:56:52 18° E
Cosmos 2100 Rocket 4.4 20:49:33 10° SSE 20:55:20 40° E 21:01:04 10° NNE
Cosmos 1461 3.2 20:52:43 10° NW 20:56:43 59° WSW 20:59:59 14° SSE
Cosmos 1346 Rocket 3.8 20:54:02 10° NNW 20:57:51 48° W 21:01:42 10° S
DELTA 2 R/B (1) 3.5 20:52:27 10° W 20:58:03 82° SSW 21:01:40 22° ESE
Cosmos 2082 3.8 20:53:42 10° NNW 20:59:20 78° WSW 21:04:56 10° SSE
Cosmos 2297 Rocket 2.1 20:53:53 10° NNW 20:59:34 81° ENE 21:04:20 15° SSE
SPOT 5 4.2 21:00:31 20° E 21:01:58 22° ENE 21:05:41 10° NNE
Cosmos 1340 4.3 20:59:24 10° NNE 21:01:55 18° ENE 21:01:55 18° ENE
Cosmos 2061 Rocket 4.4 20:56:27 10° SSE 21:02:17 41° E 21:08:05 10° NNE
Cosmos 1763 Rocket 4.4 21:01:52 23° SE 21:03:13 26° E 21:07:23 10° NE
YAOGAN 11 4.3 21:00:21 20° SE 21:03:16 52° ENE 21:07:36 10° N
H-2A R/B 3.2 21:03:38 22° E 21:04:19 23° ENE 21:07:34 10° NNE
Cosmos 1898 Rocket 3.7 20:59:35 10° N 21:04:47 53° ENE 21:07:48 24° SE
Cosmos 1626 Rocket 3.5 21:04:40 10° N 21:09:05 84° W 21:13:07 12° S
Cosmos 1515 3.6 21:10:46 10° N 21:14:38 82° E 21:16:39 27° S
Cosmos 1602 Rocket 3.9 21:13:57 10° NNW 21:18:23 65° W 21:22:28 12° S
Cosmos 468 Rocket 3.8 21:13:41 10° SSW 21:18:48 82° ESE 21:23:57 10° NNE
RESURS DK-1 2.9 21:15:49 10° N 21:19:45 41° ENE 21:20:28 37° E
Cosmos 2084 3.3 21:18:36 10° NNW 21:22:41 75° NE 21:23:56 44° SE
deb Chang Zheng 4 4.0 21:18:33 10° NNE 21:22:47 41° E 21:23:15 40° ESE
CZ-4 DEB 2.6 21:22:56 55° S 21:23:32 84° W 21:26:42 10° NNW
SJ-11-01 4.2 21:20:46 24° SSE 21:23:34 85° ENE 21:28:17 10° NNW
Cosmos 841 Rocket 3.9 21:24:57 36° ESE 21:25:36 38° ESE 21:30:24 10° NE
Cosmos 1743 2.7 21:26:38 52° SE 21:27:10 58° E 21:31:01 10° NNE
Cosmos 1459 Rocket 3.8 21:21:23 10° S 21:27:22 68° E 21:33:25 10° NNE
Cosmos 1814 Rocket 3.9 21:23:54 10° SSW 21:29:15 85° ESE 21:34:35 10° NNE
Cosmos 1697 Rocket 2.8 21:28:54 10° SSW 21:34:32 75° WNW 21:40:13 10° NNE
Cosmos 1066 Rocket 4.2 21:28:55 10° N 21:34:37 86° W 21:38:15 24° S
OAO 2 Rocket 3.4 21:32:36 10° W 21:37:33 58° S 21:38:28 50° SE
SL-16 R/B 4.0 21:46:17 16° ENE 21:46:17 16° ENE 21:47:42 10° NE
Cosmos 2058 Rocket 4.1 21:45:01 33° NE 21:45:01 33° NE 21:48:01 10° NNE
Cosmos 1606 Rocket 3.4 21:50:20 78° SE 21:50:32 81° E 21:54:58 10° N
ASTEX 1 3.3 21:47:36 10° NNE 21:52:35 63° E 21:52:41 63° ESE
ARGOS 3.8 21:53:32 38° ENE 21:53:32 38° ENE 21:58:25 10° N
Cosmos 1980 Rocket 2.2 21:51:54 10° SSW 21:57:35 80° WNW 22:03:18 10° NNE
Cosmos 1802 Rocket 4.1 21:55:57 15° SSW 22:01:25 76° W 22:07:52 10° N
Lacrosse 5 rocket 3.2 21:59:08 10° WNW 22:01:41 18° WSW 22:01:41 18° WSW
Envisat 3.4 22:00:25 38° SSW 22:02:10 58° W 22:07:11 10° NNW
SL-08 R/B 4.3 22:00:46 46° S 22:02:46 77° E 22:08:56 10° N
Cosmos 1937 Rocket 4.0 22:02:53 10° NNW 22:08:03 56° WSW 22:09:16 45° SSW
MetOp-B 3.9 22:07:39 75° SE 22:08:06 84° ENE 22:13:28 10° NNW
Cosmos 1726 Rocket 3.9 22:14:23 61° NW 22:14:23 61° NW 22:18:24 10° N
Cosmos 2016 Rocket 4.1 22:11:10 30° SSW 22:14:21 71° W 22:20:33 10° N
H-2A R/B 3.4 22:17:51 26° NE 22:17:51 26° NE 22:20:38 10° N
Meteor 1-15 Rocket 4.2 22:19:19 79° E 22:19:19 79° E 22:25:12 10° NNE
Cosmos 990 Rocket 4.3 22:15:24 10° NNW 22:20:33 59° WSW 22:20:53 58° WSW
Tiangong 1 4.1 22:18:42 10° WNW 22:19:22 15° WNW 22:19:22 15° WNW
Cosmos 2263 Rocket 3.5 22:21:35 10° N 22:25:29 28° NE 22:25:29 28° NE
Cosmos 2322 Rocket 3.1 22:32:37 37° NNE 22:32:37 37° NNE 22:35:57 10° NNE
Cosmos 2098 Rocket 4.2 22:29:39 42° SSW 22:32:03 70° W 22:37:59 10° N
SPOT 1/Viking Rocket 3.8 22:36:07 65° NNW 22:36:07 65° NNW 22:40:36 10° NNW
Lacrosse 5 2.9 22:32:10 10° NW 22:36:04 39° W 22:36:04 39° W
SPOT 5 4.0 22:39:47 39° W 22:39:47 39° W 22:44:21 10° NNW
H-2A R/B 3.9 22:40:46 25° W 22:40:46 25° W 22:43:40 10° NW
Tsikada Rocket 4.2 22:44:48 10° NNW 22:51:09 64° W 22:51:23 63° WSW
Cosmos 1125 Rocket 4.4 22:47:54 10° NNW 22:51:36 47° NNW 22:51:36 47° NNW
USA 215 3.5 23:03:14 58° NNE 23:03:14 58° NNE 23:09:25 10° NW
Terra 3.7 23:11:26 26° N 23:11:26 26° N 23:13:32 10° N
SL-16 R/B 3.5 23:28:05 36° NNW 23:28:05 36° NNW 23:32:15 10° N
Cosmos 2360 Rocket 4.2 23:45:49 21° NNE 23:45:49 21° NNE 23:47:37 10° NNE
H-2A R/B 4.4 23:58:29 17° NW 23:58:29 17° NW 23:59:58 10° NW
